Stations météo

réclame
Mon MeteoGroup
Solenzara, France (7765): Température de l'air & dewpoint: 12.08.2018 02:00:00 - 18.08.2018 02:00:00 (CEST)Solenzara, France (7765): Température de l'air 5cm: 12.08.2018 02:00:00 - 18.08.2018 02:00:00 (CEST)Solenzara, France (7765): Température de l'air -20cm: 12.08.2018 02:00:00 - 18.08.2018 02:00:00 (CEST)Solenzara, France (7765): Vitesse du vent & gusts: 12.08.2018 02:00:00 - 18.08.2018 02:00:00 (CEST)Solenzara, France (7765): Direction du vent: 12.08.2018 02:00:00 - 18.08.2018 02:00:00 (CEST)Solenzara, France (7765): reduced air pressure: 12.08.2018 02:00:00 - 18.08.2018 02:00:00 (CEST)Solenzara, France (7765): visibility: 12.08.2018 02:00:00 - 18.08.2018 02:00:00 (CEST)Solenzara, France (7765): Ensoleillement: 12.08.2018 02:00:00 - 18.08.2018 02:00:00 (CEST)Solenzara, France (7765): Quantités de précipitations: 12.08.2018 02:00:00 - 18.08.2018 02:00:00 (CEST)
Date & Time tt [°C] td [°C] tt 5cm [°C] tt -20cm [°C] ff [km/h] ff [knt] fx [km/h] fx [knt] dd ppp [hPa] vv [km] sd [min] rr [mm]
18.08.2018 02:00:00 23,6 15,6 22,0 29,5 8 4 16 9 WNW 1015,3 60 0 0,0
18.08.2018 01:00:00 23,6 16,1 22,3 29,6 8 5 16 8 WNW 1015,4 60 0 0,0
18.08.2018 00:00:00 24,3 16,3 22,9 29,8 7 4 16 8 W 1015,3 60 0 0,0
17.08.2018 23:00:00 24,4 16,9 23,1 29,9 7 4 13 7 W 1015,2 60 0 0,0
17.08.2018 22:00:00 25,3 17,2 23,9 29,9 6 3 13 7 W 1015,2 60 0 0,0
17.08.2018 21:00:00 26,0 17,9 24,6 29,9 6 3 10 5 W 1014,9 60 0 0,0
17.08.2018 20:00:00 26,4 18,0 26,1 30,0 6 3 8 5 S 1014,3 60 1 0,0
17.08.2018 19:00:00 27,1 17,6 27,2 29,9 6 4 19 11 N 1013,8 60 4 0,0
17.08.2018 18:00:00 27,5 16,5 28,3 29,8 15 8 30 16 N 1013,6 60 0 0,0
17.08.2018 17:00:00 28,1 18,8 29,9 29,6 9 5 12 7 NE 1014,5 60 0 0,0
17.08.2018 16:00:00 28,2 19,4 30,2 29,3 8 4 13 7 ESE 1014,4 60 13 0,0
17.08.2018 15:00:00 28,4 19,6 30,9 29,0 8 4 22 12 ESE 1014,5 18 14 0,0
17.08.2018 14:00:00 30,1 18,8 31,7 28,6 13 7 21 12 SE 1014,8 44 52 0,0
17.08.2018 13:00:00 29,6 19,0 35,0 28,3 14 8 21 11 ESE 1014,7 18 60 0,0
17.08.2018 12:00:00 29,6 18,4 38,4 28,1 11 6 19 10 SE 1014,8 19 60 0,0
17.08.2018 11:00:00 30,1 18,2 36,1 28,1 9 5 16 8 ESE 1014,7 60 60 0,0
17.08.2018 10:00:00 29,5 14,9 35,0 28,1 6 3 14 8 ESE 1014,6 42 60 0,0
17.08.2018 09:00:00 28,1 15,4 27,3 28,2 4 2 15 8 NE 1014,4 59 60 0,0
17.08.2018 08:00:00 24,4 14,2 22,1 28,3 7 4 20 11 NW 1014,5 58 60 0,0
17.08.2018 07:00:00 22,8 13,8 21,0 28,5 11 6 23 13 W 1014,3 60 2 0,0
17.08.2018 06:00:00 22,4 13,7 20,9 28,7 11 6 22 12 W 1014,0 60 0 0,0
17.08.2018 05:00:00 22,6 13,4 21,2 28,9 11 6 20 11 W 1013,9 60 0 0,0
17.08.2018 04:00:00 22,8 13,3 21,5 29,0 12 7 21 11 W 1014,0 60 0 0,0
17.08.2018 03:00:00 23,1 13,0 20,9 29,2 9 5 15 8 W 1014,2 60 0 0,0
17.08.2018 02:00:00 22,5 14,6 20,8 29,3 8 5 16 9 W 1014,2 60 0 0,0
17.08.2018 01:00:00 24,0 12,9 22,3 29,5 10 5 20 11 W 1014,1 60 0 0,0
17.08.2018 00:00:00 24,6 13,2 22,7 29,6 10 6 22 12 W 1013,8 60 0 0,0
16.08.2018 23:00:00 24,2 13,4 22,6 29,8 10 5 20 11 W 1013,7 60 0 0,0
16.08.2018 22:00:00 24,6 14,7 22,9 29,9 8 4 18 10 W 1013,9 60 0 0,0
16.08.2018 21:00:00 25,8 16,1 23,6 29,9 7 4 13 7 W 1013,7 60 0 0,0
16.08.2018 20:00:00 26,9 17,7 24,7 29,9 4 2 10 6 E 1013,0 60 37 0,0
16.08.2018 19:00:00 29,1 16,6 30,4 29,9 7 4 9 5 ESE 1012,8 60 60 0,0
16.08.2018 18:00:00 28,6 16,8 27,9 29,7 8 4 14 8 W 1013,6 54 8 0,0
16.08.2018 17:00:00 27,6 17,2 27,9 29,5 10 6 31 17 NE 1013,7 60 0 0,0
16.08.2018 16:00:00 29,5 17,7 32,0 29,2 23 12 43 23 NE 1013,8 30 60 0,0
16.08.2018 15:00:00 30,2 17,0 34,3 28,8 26 14 42 23 ENE 1014,0 30 60 0,0
16.08.2018 14:00:00 29,8 18,9 34,6 28,5 27 14 40 21 ENE 1014,2 32 60 0,0
16.08.2018 13:00:00 30,2 18,3 36,7 28,2 24 13 36 19 ENE 1014,5 17 60 0,0
16.08.2018 12:00:00 29,7 17,8 35,8 28,1 23 12 31 17 ENE 1014,8 43 60 0,0
16.08.2018 11:00:00 29,2 17,4 33,1 28,0 21 11 31 17 NE 1015,1 20 60 0,0
16.08.2018 10:00:00 28,9 15,8 32,3 28,0 19 11 30 16 NE 1014,8 56 60 0,0
16.08.2018 09:00:00 27,6 15,9 27,5 28,2 14 8 22 12 NNE 1014,9 60 60 0,0
16.08.2018 08:00:00 25,7 15,4 21,3 28,3 14 8 21 11 N 1014,8 38 60 0,0
16.08.2018 07:00:00 22,0 14,9 20,4 28,4 9 5 14 7 W 1014,7 60 10 0,0
16.08.2018 06:00:00 22,3 15,4 20,7 28,5 10 5 16 9 W 1014,6 60 0 0,0
16.08.2018 05:00:00 25,2 15,2 22,8 28,6 10 5 18 10 NNW 1014,5 60 0 0,0
16.08.2018 04:00:00 25,1 15,7 23,7 28,7 8 4 19 10 NNW 1014,7 60 0 0,0
16.08.2018 03:00:00 24,8 16,0 23,8 28,9 13 7 22 12 N 1014,7 55 0 0,0
16.08.2018 02:00:00 26,4 16,0 25,3 29,0 13 7 20 11 N 1015,0 58 0 0,0
16.08.2018 01:00:00 26,4 16,0 25,1 29,1 12 7 19 11 NNW 1015,0 60 0 0,0
16.08.2018 00:00:00 25,7 15,7 22,4 29,2 11 6 18 10 NNW 1015,0 60 0 0,0
15.08.2018 23:00:00 24,3 16,6 22,6 29,3 8 4 18 10 W 1014,7 60 0 0,0
15.08.2018 22:00:00 24,2 17,2 22,9 29,3 10 5 16 9 W 1014,8 60 0 0,0
15.08.2018 21:00:00 25,9 16,4 24,4 29,4 8 5 27 15 NW 1014,2 60 0 0,0
15.08.2018 20:00:00 26,8 16,4 26,3 29,4 18 10 27 15 N 1013,8 60 35 0,0
15.08.2018 19:00:00 28,0 17,5 28,0 29,3 14 7 41 22 N 1013,5 60 52 0,0
15.08.2018 18:00:00 28,0 18,4 28,2 29,2 29 16 48 26 NE 1013,4 57 47 0,0
15.08.2018 17:00:00 28,2 18,9 29,6 29,0 29 16 50 27 NE 1013,3 30 56 0,0
15.08.2018 16:00:00 29,1 19,1 29,5 28,8 34 18 54 29 NE 1013,3 35 53 0,0
15.08.2018 15:00:00 28,5 18,6 31,2 28,6 32 17 46 25 NE 1013,4 27 60 0,0
15.08.2018 14:00:00 28,9 19,2 33,0 28,4 30 16 48 26 NE 1013,5 32 60 0,0
15.08.2018 13:00:00 28,5 18,6 31,4 28,3 26 14 37 20 NE 1013,7 42 53 0,0
15.08.2018 12:00:00 28,1 18,8 29,0 28,2 19 11 32 17 NNE 1013,9 53 49 0,0
15.08.2018 11:00:00 26,9 18,5 30,1 28,2 23 12 32 17 NNE 1013,7 35 60 0,0
15.08.2018 10:00:00 26,1 17,2 28,0 28,2 4 2 11 6 N 1013,4 18 55 0,0
15.08.2018 09:00:00 23,9 17,6 21,8 28,4 4 2 18 10 N 1013,4 50 28 0,0
15.08.2018 08:00:00 21,7 18,3 19,5 28,5 8 4 14 8 NE 1012,9 57 0 0,0
15.08.2018 07:00:00 20,9 17,1 19,5 28,7 4 2 9 5 NW 1012,7 60 0 0,0
15.08.2018 06:00:00 21,5 17,5 19,6 28,8 4 2 13 7 NW 1012,1 60 0 0,0
15.08.2018 05:00:00 23,0 17,5 20,3 29,0 6 3 18 10 NNW 1012,2 60 0 0,0
15.08.2018 04:00:00 21,5 18,1 20,0 29,2 9 5 17 9 W 1012,5 60 0 0,0
15.08.2018 03:00:00 21,7 18,3 20,1 29,3 9 5 14 8 W 1012,7 59 0 0,0
15.08.2018 02:00:00 21,9 18,7 20,3 29,5 8 4 29 16 WNW 1012,6 56 0 0,6
15.08.2018 01:00:00 24,1 18,5 23,2 29,7 12 7 24 13 NNW 1012,9 54 0 0,0
15.08.2018 00:00:00 23,5 16,8 22,7 29,9 16 9 26 14 N 1012,5 60 0 0,0
14.08.2018 23:00:00 24,3 17,8 22,6 30,0 7 4 16 9 NW 1012,0 60 0 0,0
14.08.2018 22:00:00 24,1 17,6 22,6 30,2 11 6 22 12 NNW 1011,4 60 0 0,0
14.08.2018 21:00:00 24,1 18,7 23,0 30,4 14 8 26 14 N 1010,7 56 0 0,0
14.08.2018 20:00:00 25,6 18,0 24,4 30,5 8 4 16 9 WNW 1010,5 60 19 0,0
14.08.2018 19:00:00 27,6 18,9 28,6 30,5 16 8 23 12 S 1010,2 55 60 0,0
14.08.2018 18:00:00 27,7 18,7 27,3 30,5 13 7 24 13 S 1010,6 46 41 0,0
14.08.2018 17:00:00 27,0 18,6 28,8 30,5 11 6 16 9 SE 1011,3 54 60 0,0
14.08.2018 16:00:00 24,4 18,8 21,3 30,4 9 5 42 23 N 1011,7 20 32 11,1
14.08.2018 15:00:00 26,4 19,0 25,2 30,1 22 12 37 20 NE 1011,6 9 8 0,2
14.08.2018 14:00:00 29,6 21,8 32,0 29,9 15 8 27 14 ENE 1011,2 20 46 0,0
14.08.2018 13:00:00 29,3 21,0 34,0 29,7 17 9 25 14 ENE 1011,6 20 60 0,0
14.08.2018 12:00:00 28,9 22,2 33,6 29,7 20 11 28 15 NE 1011,9 20 60 0,0
14.08.2018 11:00:00 28,8 22,1 32,9 29,7 13 7 24 13 ENE 1012,0 20 60 0,0
14.08.2018 10:00:00 27,4 22,1 24,0 29,9 9 5 14 8 S 1011,4 20 60 0,0
14.08.2018 09:00:00 23,5 20,2 21,6 30,0 14 7 22 12 SW 1011,4 20 0 0,0
14.08.2018 08:00:00 22,7 19,9 21,3 30,2 9 5 24 13 W 1012,1 20 0 0,0
14.08.2018 07:00:00 22,7 21,0 20,5 30,4 11 6 18 10 NNW 1011,7 19 0 1,4
14.08.2018 06:00:00 23,2 17,2 22,3 30,5 11 6 18 10 W 1011,2 20 0 0,0
14.08.2018 05:00:00 23,2 17,9 22,1 30,7 10 5 16 9 W 1011,1 20 0 0,0
14.08.2018 04:00:00 23,4 17,4 22,3 30,8 8 5 17 9 W 1011,5 20 0 0,0
14.08.2018 03:00:00 23,6 17,3 22,4 30,9 9 5 16 9 W 1011,4 20 0 0,0
14.08.2018 02:00:00 23,6 17,3 22,6 31,1 9 5 17 9 W 1011,9 20 0 0,0
14.08.2018 01:00:00 24,0 18,4 23,2 31,2 8 4 13 7 W 1012,2 20 0 0,0
14.08.2018 00:00:00 24,5 19,3 23,4 31,3 5 3 13 7 W 1012,4 50 0 0,0
13.08.2018 23:00:00 25,1 20,6 24,1 31,4 8 5 15 8 WNW 1012,3 46 0 0,0
13.08.2018 22:00:00 25,8 20,8 24,9 31,5 5 3 11 6 WNW 1012,2 45 0 0,0
13.08.2018 21:00:00 26,6 20,9 25,8 31,5 4 2 8 4 WNW 1012,2 51 0 0,0
13.08.2018 20:00:00 26,8 20,9 27,1 31,4 3 2 10 5 SW 1012,1 58 4 0,0
13.08.2018 19:00:00 27,7 21,0 28,9 31,3 0 0 10 6 N 1012,2 60 8 0,0
13.08.2018 18:00:00 27,6 20,2 29,5 31,2 8 5 23 12 E 1012,3 20 7 0,0
13.08.2018 17:00:00 28,8 18,9 29,8 31,0 11 6 26 14 ENE 1012,7 20 53 0,0
13.08.2018 16:00:00 28,0 20,8 29,8 30,7 6 3 30 16 E 1013,5 20 17 0,0
13.08.2018 15:00:00 28,9 21,7 30,3 30,5 16 8 27 15 ENE 1013,9 9 28 0,0
13.08.2018 14:00:00 30,3 22,2 33,0 30,2 14 7 25 14 SSE 1013,8 20 56 0,0
13.08.2018 13:00:00 29,9 22,6 37,9 30,0 16 9 25 14 SSE 1013,8 19 60 0,0
13.08.2018 12:00:00 29,8 22,0 36,5 29,8 16 9 25 13 SSE 1014,3 54 60 0,0
13.08.2018 11:00:00 29,0 21,2 34,8 29,8 16 9 26 14 SSE 1014,5 59 60 0,0
13.08.2018 10:00:00 28,6 21,4 34,2 29,9 12 7 18 10 SE 1014,4 20 60 0,0
13.08.2018 09:00:00 28,5 20,8 29,7 30,0 2 1 11 6 W 1014,4 42 60 0,0
13.08.2018 08:00:00 24,8 16,8 22,5 30,2 9 5 18 10 W 1014,2 45 60 0,0
13.08.2018 07:00:00 22,7 16,3 21,3 30,4 12 6 19 10 W 1014,1 60 9 0,0
13.08.2018 06:00:00 22,5 16,5 21,4 30,5 12 6 20 11 W 1014,2 60 0 0,0
13.08.2018 05:00:00 22,6 17,1 21,5 30,7 11 6 19 10 W 1014,2 60 0 0,0
13.08.2018 04:00:00 22,9 17,4 21,7 30,9 10 5 18 10 W 1014,4 60 0 0,0
13.08.2018 03:00:00 23,1 17,3 21,8 31,1 9 5 17 9 W 1014,4 60 0 0,0
13.08.2018 02:00:00 23,5 18,4 22,1 31,2 9 5 15 8 W 1014,8 57 0 0,0
13.08.2018 01:00:00 23,9 19,2 22,5 31,4 9 5 16 8 W 1015,3 56 0 0,0
13.08.2018 00:00:00 24,2 19,5 23,0 31,5 9 5 19 10 W 1015,5 54 0 0,0
12.08.2018 23:00:00 24,5 19,6 23,4 31,6 10 5 16 9 W 1015,7 56 0 0,0
12.08.2018 22:00:00 25,0 19,6 24,0 31,7 8 4 15 8 W 1015,7 60 0 0,0
12.08.2018 21:00:00 25,9 19,3 24,8 31,7 6 4 10 5 W 1015,4 60 0 0,0
12.08.2018 20:00:00 27,5 19,6 27,0 31,7 6 3 13 7 S 1015,1 60 25 0,0
12.08.2018 19:00:00 28,9 19,2 29,5 31,6 9 5 20 11 SSE 1015,2 23 52 0,0
12.08.2018 18:00:00 29,5 22,0 31,3 31,4 14 8 23 13 SSE 1015,7 55 60 0,0
12.08.2018 17:00:00 30,1 21,5 34,2 31,1 16 8 25 14 SE 1015,9 36 60 0,0
12.08.2018 16:00:00 30,7 22,0 35,1 30,8 18 10 27 15 SE 1016,3 39 60 0,0
12.08.2018 15:00:00 30,4 21,8 35,3 30,5 18 10 29 16 SSE 1016,8 20 60 0,0
12.08.2018 14:00:00 30,8 21,3 38,3 30,1 15 8 25 14 SE 1017,1 18 60 0,0
12.08.2018 13:00:00 30,4 21,2 38,4 29,8 16 9 27 15 SE 1017,5 17 60 0,0
12.08.2018 12:00:00 30,3 21,7 38,6 29,7 15 8 23 12 SE 1017,6 17 60 0,0
12.08.2018 11:00:00 29,6 21,0 36,8 29,7 11 6 16 9 ESE 1017,6 17 60 0,0
12.08.2018 10:00:00 29,0 21,0 35,3 29,7 8 4 12 7 ESE 1017,5 20 60 0,0
12.08.2018 09:00:00 28,2 18,6 26,1 29,8 3 2 16 9 NNW 1017,5 20 33 0,0
12.08.2018 08:00:00 24,1 15,6 23,0 30,0 10 5 19 10 W 1017,5 20 0 0,0
12.08.2018 07:00:00 23,6 15,1 22,2 30,3 11 6 21 11 W 1017,1 20 0 0,0
12.08.2018 06:00:00 23,3 14,3 22,1 30,4 13 7 21 11 W 1016,8 60 0 0,0
12.08.2018 05:00:00 23,2 14,7 22,1 30,6 12 6 21 11 W 1016,9 20 0 0,0
12.08.2018 04:00:00 23,2 15,0 21,7 30,8 11 6 20 11 W 1016,9 20 0 0,0
12.08.2018 03:00:00 23,5 16,5 21,9 31,0 6 4 19 11 WNW 1016,9 20 0 0,0
12.08.2018 02:00:00 23,8 16,8 22,5 31,2 12 6 19 10 W 1017,3 46 0 0,0

tt = Température de l'air
td = dewpoint
tt 5cm = Température de l'air 5cm
tt -20cm = Température de l'air -20cm
ff = Vitesse du vent
fx = gusts
dd = Direction du vent
ppp = reduced air pressure
vv = visibility
sd = Ensoleillement
rr = Quantités de précipitations

stations d'obs. à proximité